EDT,Max TemperatureF,Mean TemperatureF,Min TemperatureF,Max Dew PointF,MeanDew PointF,Min DewpointF,Max Humidity, Mean Humidity, Min Humidity, Max Sea Level PressureIn, Mean Sea Level PressureIn, Min Sea Level PressureIn, Max VisibilityMiles, Mean VisibilityMiles, Min VisibilityMiles, Max Wind SpeedMPH, Mean Wind SpeedMPH, Max Gust SpeedMPH,PrecipitationIn, CloudCover, Events, WindDirDegrees
2012-10-1,70,60,50,59,53,49,97,78,47,29.98,29.93,29.90,10,10,10,5,1,,0.00,3,Rain,55
2012-10-2,74,68,63,71,66,58,100,95,82,29.94,29.90,29.87,10,6,1,7,2,,0.07,8,Rain,328
2012-10-3,86,77,68,71,69,65,100,81,50,30.11,30.04,29.94,10,8,2,9,2,16,0.00,3,,228
2012-10-4,80,71,62,72,66,61,99,81,50,30.15,30.12,30.09,10,10,7,10,2,,0.00,2,Rain,263
2012-10-5,82,68,55,62,56,51,100,73,34,30.14,30.07,29.96,10,10,5,12,1,16,0.00,0,,224
2012-10-6,82,68,52,61,54,43,99,69,44,30.05,29.92,29.83,10,10,7,16,5,26,0.00,1,,271
2012-10-7,54,49,44,51,47,43,100,85,65,30.18,30.09,30.03,10,9,0,9,1,,0.07,7,Fog-Rain,320
2012-10-8,52,46,41,46,44,42,100,86,73,30.30,30.23,30.18,10,9,0,10,3,,0.00,5,Fog-Rain,349
2012-10-9,62,54,46,56,50,44,100,86,68,30.20,30.14,30.06,10,9,4,9,5,,0.08,8,Rain,359
2012-10-10,70,60,50,56,51,39,100,70,43,30.09,29.98,29.88,10,10,1,14,3,25,0.00,4,,271
2012-10-11,64,54,42,42,36,30,94,55,31,30.32,30.22,30.10,10,10,10,9,4,17,0.00,0,,316
2012-10-12,69,54,38,46,41,37,100,74,32,30.42,30.24,30.14,10,10,10,16,2,25,0.03,0,,343
2012-10-13,64,50,37,43,37,32,100,70,31,30.53,30.43,30.33,10,10,10,10,2,,0.00,0,,180
2012-10-14,77,62,46,58,51,43,98,68,40,30.31,30.15,29.96,10,10,10,22,8,31,0.00,0,,191
2012-10-15,73,64,55,64,60,51,100,76,64,29.95,29.79,29.67,10,9,0,17,10,25,0.15,3,Fog-Rain,217
2012-10-16,67,56,45,51,46,42,100,74,41,29.93,29.89,29.83,10,10,5,13,3,20,0.01,1,,312
2012-10-17,72,56,41,52,48,42,100,77,40,30.02,29.95,29.91,10,10,7,10,2,18,0.00,0,,166
2012-10-18,75,62,48,63,55,48,100,78,48,29.95,29.88,29.78,10,10,5,15,6,21,0.00,3,Rain,153
2012-10-19,79,68,58,67,60,48,100,77,48,29.76,29.69,29.60,10,9,2,13,3,18,0.10,5,Rain,197
2012-10-20,71,58,46,51,46,41,100,68,36,29.94,29.79,29.68,10,10,10,9,3,,0.00,1,,265
2012-10-21,68,54,40,46,43,39,100,72,34,30.15,30.07,29.95,10,10,10,17,2,24,0.00,0,,312
2012-10-22,74,57,40,50,44,40,100,70,34,30.22,30.16,30.11,10,10,10,7,1,,0.00,0,,272
2012-10-23,85,68,50,56,51,46,90,63,31,30.14,30.09,30.02,10,10,5,10,2,18,0.00,0,,212
2012-10-24,85,70,55,58,55,50,96,66,30,30.13,30.09,30.05,10,10,10,7,1,,0.00,1,,134
2012-10-25,76,66,55,63,59,54,99,83,62,30.20,30.16,30.12,10,9,4,8,2,,0.00,2,,82
2012-10-26,69,64,60,65,63,60,100,93,78,30.18,30.11,30.03,10,7,1,7,1,,0.00,6,Rain,29
2012-10-27,70,64,59,62,57,52,98,79,61,30.02,29.91,29.83,10,10,10,16,5,22,0.00,2,,29
2012-10-28,63,58,54,54,50,43,99,71,51,29.83,29.70,29.56,10,9,3,17,11,28,0.16,7,Rain,8
2012-10-29,54,50,46,54,50,45,97,95,92,29.55,29.27,28.84,10,6,2,30,15,41,1.86,8,Rain,318
2012-10-30,46,44,41,46,42,39,97,93,83,29.48,29.24,28.85,10,10,7,17,12,28,0.31,7,Rain,215
2012-10-31,55,48,40,44,40,38,93,75,54,29.67,29.58,29.48,10,10,10,12,3,,0.00,4,Rain,220